Terminal Aerodrome Forecast
Issued by NWS

Home | Current Version | Previous Version | Text Only | Print | Product List | Glossary Off
Versions: 1 2 3 4 5 6 7 8 9 10 11 12 13 14 15 16 17

000
FTUS43 KUNR 270520
TAFGCC
TAF
KGCC 270520Z 2706/2806 18007KT P6SM BKN100
     FM271700 30008KT P6SM BKN100
      TEMPO 2717/2721 3SM TSRA BKN035CB=

USA.gov is the U.S. government's official web portal to all federal, state and local government web resources and services.